Regional Weather Roundup
Issued by NWS Bismarck, ND

Home | Current Version | Previous Version | Text Only | Print | Product List | Glossary On
Versions: 1 2 3 4 5 6 7 8 9 10 11 12 13 14 15 16 17 18 19 20 21 22 23 24 25 26 27 28 29 30 31 32 33 34 35 36 37 38 39 40 41 42 43 44 45 46 47 48 49 50
000
ASUS43 KBIS 261020
RWRBIS

NWR BROADCAST TEXT
NATIONAL WEATHER SERVICE BISMARCK ND
400 AM CST MON JAN 26 2015

NOTE: "FAIR" INDICATES FEW OR NO CLOUDS BELOW 12,000 FEET WITH NO
SIGNIFICANT WEATHER AND/OR OBSTRUCTIONS TO VISIBILITY.


CITY           SKY/WX    TMP DP  RH WIND       PRES   REMARKS
WILLISTON      CLOUDY    38  32  79 SW8       29.89R
MINOT          PTCLDY    38  30  73 W17       29.77S
MINOT AFB      PTCLDY    37  35  94 NW21      29.76S
BISMARCK       CLEAR     41  32  70 NW13      29.82S
DICKINSON      CLOUDY    38  33  82 W10       29.87R
GARRISON         N/A     39  33  79 NW20      29.80S
HETTINGER ARPT PTCLDY    35  31  85 W7        29.91R
JAMESTOWN      CLOUDY    38  32  79 NW15      29.71R
BEACH          CLOUDY    37  36  93 NW6       29.93R
CARRINGTON     FAIR      36  36 100 MISG      29.73S
CROSBY         FAIR      37  32  81 W15       29.85F
HARVEY         FAIR      36  32  87 W14       29.74S
HAZEN          PTSUNNY   37  32  81 SW12      29.85R
LINTON         FAIR      34  34 100 W8        29.82S
MANDAN         FAIR      39  34  81 W18       29.82S
OAKES            N/A     37  36  93 NW14G21   29.72R
RUGBY          FAIR      32  28  86 W15       29.73R
STANLEY        CLOUDY    37  34  87 NW15      29.81F
TIOGA          PTSUNNY   37  36  93 W16       29.86F
WATFORD CITY   CLOUDY    37  32  81 SW5       29.88R
$$

CITY           SKY/WX    TMP DP  RH WIND       PRES   REMARKS
GRAND FORKS    CLEAR     35  30  82 NW12      29.62R
GRAND FORKS AF CLEAR     38  31  74 NW13G21   29.63R
DEVILS LAKE    CLEAR     36  30  80 W21       29.68S
FARGO          CLEAR     32  28  85 SW9       29.65F
CANDO          FAIR      32  28  86 W17       29.69R
CAVALIER       FAIR      37  32  81 NW14      29.60R
GWINNER        PTSUNNY   37  36  93 NW15      29.71S
LANGDON        FAIR      32  28  86 W16       29.63R
ROLLA          FAIR      39  32  75 NW22G32   29.68R
WALHALLA         N/A     37  36  93 NW14G21   29.61S
$$

CITY           SKY/WX    TMP DP  RH WIND       PRES   REMARKS
ABERDEEN       PTCLDY    33  29  85 W3        29.75F
MOBRIDGE       CLEAR     38  33  82 NW10      29.81R
BUFFALO          N/A     36  30  79 W13       29.88S
RAPID CITY     CLEAR     52  29  41 NW17      29.97R
GLASGOW        CLEAR     34  31  88 NW6       29.95R
SIDNEY         CLOUDY    36  32  87 CALM      29.96S
WOLF POINT     CLEAR     35  31  85 W7        29.96R
GLENDIVE       CLEAR     37  30  75 W12       29.96R
MILES CITY     CLEAR     37  30  75 W9        29.98F
BAKER          CLEAR     35  31  85 W9        29.95S
$$

CITY           SKY/WX    TMP DP  RH WIND       PRES   REMARKS
BILLINGS       CLOUDY    46  29  51 W22       30.08F
GREAT FALLS    CLOUDY    53  26  35 SW20      30.05F
REGINA         MOCLDY    37  30  75 W16       29.86R
ESTEVAN        CLEAR     36  30  80 W14       29.82R
$$



USA.gov is the U.S. government's official web portal to all federal, state and local government web resources and services.